Temp_Advection
nan nan nan nan nan nan nan nan nan nan nan nan nan nan nan nan nan nan nan nan nan nan nan nan nan nan nan nan nan nan nan nan nan nan nan nan nan nan nan nan nan nan nan nan nan nan nan nan nan nan nan nan nan nan nan nan nan nan nan nan nan nan nan nan nan nan nan nan nan
nan 0 0 0 0 0 0 0 0 0 0 0 0 0 0 0 0 -0 -0 -0 -0 -0 -0 -0 -0 -0 -0 -0 -0 0 0 0 0 0 0 0 0 0 0 0 0 0 0 0 0 0 0 0 0 0 0 0 0 0 0 0 0 0 0 0 1 1 1 1 2 1 1 1 nan
nan 0 0 0 0 0 0 0 0 0 0 0 0 0 0 0 0 0 -0 -0 -0 -0 -0 -0 -0 -0 -0 -0 -0 -0 -0 -0 0 0 0 0 0 0 0 0 0 0 0 -0 -0 -0 -0 0 0 0 0 0 0 0 0 -0 -0 -0 -0 -0 -0 0 0 0 1 1 1 1 nan
nan 0 0 0 0 0 0 0 0 0 0 0 0 0 0 0 0 0 0 -0 -0 -0 -0 -0 -0 -0 -0 -0 -0 -0 -0 -0 -0 0 0 0 0 0 0 0 0 -0 -0 -0 -0 -0 0 -0 -0 -0 0 0 0 0 0 0 0 0 0 0 0 0 0 -0 -0 0 0 1 nan
nan 0 0 0 0 0 0 0 0 0 0 0 0 0 0 0 -0 -0 -0 -0 -0 0 -0 -0 -0 -0 -0 -0 -0 -0 -0 -0 -0 -0 -0 -0 -0 0 0 0 0 -0 -0 -0 -0 0 -0 -0 -0 -0 -0 0 0 0 0 0 0 0 0 0 0 0 0 0 0 0 0 0 nan
nan 0 0 0 0 0 0 0 0 0 0 0 0 0 0 0 -0 -0 -0 -0 -0 0 0 -0 -0 -0 -0 -0 -0 -0 -0 -0 -0 -0 -0 -0 -0 0 0 0 -0 -0 0 0 0 0 -0 -0 -0 -0 0 0 0 0 0 0 0 0 0 0 0 0 0 0 1 1 1 0 nan
nan 0 0 0 0 0 0 0 0 0 0 0 0 0 0 -0 -0 -0 -0 -0 0 0 -0 -0 -0 -0 -0 -0 -0 -0 -0 -0 -0 -0 -0 -0 -0 0 0 -0 -0 -0 -0 0 0 0 0 -0 -0 -0 0 0 0 0 0 0 0 0 0 0 0 0 0 0 0 0 0 1 nan
nan 0 0 0 0 0 0 0 0 0 0 0 0 0 -0 0 0 -0 -0 0 0 0 0 -0 -0 -0 -0 -0 -0 -1 -1 -1 -1 -0 -0 -0 -0 -0 -0 0 0 0 0 -0 -0 0 0 0 0 -0 -0 -0 0 0 0 0 0 0 0 0 0 0 0 0 0 0 0 0 nan
nan 0 0 0 0 0 0 0 0 0 0 0 0 0 0 0 0 0 -0 -0 0 0 0 -0 -0 -0 -0 -0 -0 -0 -1 -1 -1 -1 -1 -0 -0 -0 -0 -0 0 0 0 0 -0 -0 -0 0 0 -0 -0 -0 -0 0 0 0 0 0 -0 -0 0 0 0 -0 -0 -0 -0 -0 nan
nan 0 0 0 0 0 0 0 0 0 0 0 0 0 0 0 1 0 -0 0 0 0 0 0 -0 -0 -0 -0 -0 -0 -0 -1 -1 -1 -1 -1 -0 -0 -0 -0 -0 -0 0 0 0 -0 -0 -0 -0 -0 -0 -0 -0 0 0 -0 -0 -0 -0 -0 -0 0 0 0 -0 -0 -0 -1 nan
nan 0 -0 0 0 0 0 0 0 0 0 0 0 0 0 1 1 0 0 0 0 0 0 0 0 0 0 -0 -0 -0 -0 -0 -1 -1 -1 -1 -1 -0 -0 -0 -0 -0 -0 0 0 0 -0 -0 -1 -0 -0 -0 0 0 0 -0 -0 -0 -0 -0 -0 -0 -0 -0 -0 -0 -1 -1 nan
nan 0 0 0 0 -0 0 0 0 0 0 0 0 0 0 1 0 0 0 0 0 0 0 0 0 0 0 0 0 -0 -0 -0 -0 -0 -1 -1 -1 -1 -0 -0 -0 -0 -0 0 0 -0 -0 -0 -1 -1 -0 -0 0 0 0 0 0 -0 -0 0 0 -0 -0 -0 -1 -1 -1 -1 nan
nan 0 0 0 -0 -0 -0 0 0 0 0 0 0 0 0 1 0 0 0 0 0 0 0 0 0 0 0 0 0 0 -0 -0 -0 -0 -0 -0 -0 -0 -0 -0 -0 -0 -0 -0 -0 -0 -0 -0 -1 -1 -1 -0 0 0 0 0 0 0 0 0 0 0 0 -0 -0 -1 -1 -1 nan
nan 0 0 0 0 -0 -0 -0 -0 0 0 0 0 0 0 1 0 0 1 1 0 0 0 0 0 0 0 0 0 0 0 0 -0 -0 -0 -0 -0 -0 -0 -0 -0 -0 -0 -0 -0 -0 -0 -0 -0 -1 -1 -0 -0 0 0 0 1 1 0 0 0 0 0 0 -0 -0 -0 -0 nan
nan 0 0 0 0 0 0 -0 -0 -0 0 0 0 0 0 0 0 0 1 1 0 0 0 0 0 0 0 0 0 0 0 0 0 -0 -0 -0 -0 -0 -0 -0 -0 -0 -0 -0 -0 -0 -0 -0 -0 -0 -1 -1 -0 -0 0 0 1 1 0 0 0 0 0 0 0 0 0 0 nan
nan 0 0 0 0 0 0 0 0 0 0 -0 0 0 0 0 0 0 1 1 1 1 1 1 0 0 0 0 0 0 0 0 0 0 -0 -0 -0 -0 -0 -0 -0 -0 -0 -0 -0 -0 -0 -0 -0 -0 -0 -0 -1 -0 -0 0 0 0 0 0 0 0 0 0 0 0 0 0 nan
nan 0 0 0 0 0 0 0 0 0 0 0 0 0 0 -0 -0 0 0 0 1 1 1 1 1 1 0 0 0 0 0 0 0 0 0 -0 -0 -0 -0 -0 -0 -0 -0 -0 -0 -0 -0 -0 -0 -0 -0 -0 -0 -0 -0 -0 0 0 0 0 0 0 0 0 -0 -0 -0 -0 nan
nan 0 0 0 0 0 0 0 0 0 0 0 0 0 0 -0 -0 -0 0 0 0 1 1 1 1 1 1 0 0 0 0 0 0 0 0 0 0 -0 -0 -0 -0 -0 -0 -0 -0 -0 -0 -0 -0 -0 -0 -0 -0 -0 -0 -0 -0 0 0 0 0 0 0 -0 -0 -0 -0 -0 nan
nan 0 0 0 0 0 0 0 0 0 0 0 0 0 0 -0 -0 -0 0 0 0 0 0 1 1 1 1 0 0 0 0 0 0 -0 -0 -0 0 0 -0 -0 -0 -0 -0 -0 -0 -0 -0 -0 -0 0 -0 -0 -0 -0 -0 -0 -0 -0 -0 0 0 0 0 -0 -0 -1 -1 -0 nan
nan 0 0 0 0 0 0 0 0 0 0 0 0 0 0 0 -0 -0 -0 0 0 0 0 0 1 1 1 1 0 0 0 0 0 -0 -0 -0 -0 -0 -0 -0 -0 -0 -0 -0 -0 -0 -0 -0 -0 -0 0 0 -0 -0 -0 -0 -0 -0 -0 -0 0 0 0 -0 -0 -1 -0 -0 nan
nan 0 0 0 0 0 0 0 0 0 0 0 0 0 0 0 -0 -0 0 0 0 0 0 0 1 1 1 1 1 0 0 0 0 0 -0 -0 -0 -0 -0 -0 -0 -0 -0 -0 -0 -0 -0 -0 -0 -0 -0 -0 0 0 -0 -0 -0 -0 -0 -0 -0 -0 -0 -0 -0 -0 -0 -0 nan
nan 0 0 0 0 0 0 0 0 -0 -0 0 0 0 0 0 0 0 0 0 0 0 0 0 0 1 1 1 1 1 0 0 0 0 -0 -0 -0 -0 -0 -0 -0 -0 -0 -0 -0 -0 -0 -0 -0 -0 -0 -0 -0 0 0 0 0 -0 -0 -0 -0 -0 -0 -0 -0 -0 -0 -0 nan
nan 0 0 0 0 0 0 0 0 -0 -0 -0 0 0 0 0 0 0 0 0 0 0 0 0 0 0 1 1 1 1 1 0 0 0 -0 -0 -0 -0 -0 -0 -0 -0 -0 -0 -0 -0 -0 -0 -0 -0 -0 -0 -0 -0 -0 -0 0 0 0 0 -0 -0 -0 -0 -0 -0 -0 -0 nan
nan 0 0 0 0 0 0 0 0 -0 -0 -0 0 0 0 0 0 0 0 0 0 0 0 0 0 0 1 1 1 1 1 0 0 0 0 -0 -0 -0 -0 -0 -0 -0 -0 -0 -0 -0 0 0 0 -0 -0 -0 -0 -0 -0 -0 -0 -0 0 0 0 0 -0 -0 -0 -0 -0 -0 nan
nan 0 0 0 0 0 0 0 0 0 0 0 0 0 0 0 0 0 0 0 0 0 0 0 0 0 1 1 1 1 1 1 0 0 0 -0 -0 -0 -0 -0 -0 -0 -0 -0 -0 0 0 0 0 0 -0 -0 -0 -0 -0 -0 -0 -0 -0 0 0 0 0 -0 -0 -0 -0 -0 nan
nan 0 0 0 0 0 0 0 0 0 0 0 -0 -0 0 0 0 0 0 0 0 0 0 0 0 0 0 1 1 1 1 1 1 0 0 0 -0 -0 -0 -0 -0 -0 -0 -0 -0 0 0 0 0 0 0 -0 -0 -0 -0 -0 -0 -0 -0 -0 0 0 0 0 0 -0 -0 -0 nan
nan 0 0 0 0 0 0 0 0 0 0 0 -0 -0 0 0 0 0 0 0 0 0 0 0 0 0 0 1 1 1 1 1 1 1 0 0 0 -0 -0 -0 -0 -0 -0 -0 0 0 0 0 -0 0 -0 0 -0 -0 -0 -0 -0 -0 -0 -0 -0 0 0 0 0 0 -0 -0 nan
nan 0 0 0 0 0 0 1 0 0 0 0 0 0 0 0 0 0 0 0 0 0 0 0 0 0 0 0 1 1 1 1 1 1 1 0 0 0 -0 -0 -0 -0 -0 -0 0 0 0 0 -0 -0 -0 -0 0 -0 -0 -0 -0 -0 -0 -0 -0 -0 0 0 0 0 -0 -0 nan
nan 1 0 0 0 0 1 0 0 0 0 0 0 0 -0 -0 0 0 0 0 -0 -0 0 0 0 0 0 0 1 1 1 1 1 1 1 1 0 0 0 0 -0 -0 -0 -0 -0 0 0 0 -0 -0 -0 -0 0 0 0 -0 -0 -0 -0 -0 -0 -0 0 0 0 0 0 0 nan
nan 1 1 0 0 0 0 0 0 1 1 0 0 0 -0 -0 -0 -0 -0 -0 0 0 0 0 0 0 0 1 1 1 1 1 1 1 1 1 0 0 0 0 0 -0 -0 -0 -0 0 -0 -0 -0 -0 -0 -0 0 0 0 0 -0 -0 -0 0 0 0 0 0 0 0 0 0 nan
nan 1 1 0 0 0 0 0 1 1 1 0 0 0 -0 -0 -0 -0 0 0 0 0 0 0 -0 0 0 1 0 0 1 1 1 1 1 1 0 0 0 0 0 0 0 -0 -0 -0 -0 0 -0 -0 -0 -0 0 0 0 0 -0 -0 0 0 0 0 0 0 0 0 1 0 nan
nan 1 1 0 0 0 0 0 1 1 1 0 0 0 -0 -0 0 0 0 0 0 0 -0 -0 -0 0 0 0 0 0 1 1 1 1 1 1 0 0 0 0 0 0 0 -0 -0 -0 0 0 -0 -0 -1 -0 0 0 0 0 -0 0 0 0 0 0 0 0 0 0 1 0 nan
nan 0 0 0 0 0 1 1 1 1 1 0 0 0 0 0 0 0 0 0 0 -0 -0 -0 0 0 0 0 0 1 1 1 1 1 1 0 0 0 0 0 0 0 0 0 -0 0 0 -0 -0 -1 -1 -0 0 0 0 0 0 0 0 0 0 0 0 0 0 0 1 0 nan
nan -0 0 0 0 1 1 1 1 1 0 0 0 0 0 0 0 0 0 0 0 0 0 0 0 0 0 0 0 0 0 1 1 1 1 0 0 0 0 0 0 0 0 0 0 0 0 0 -0 -1 -1 -0 0 0 0 0 0 0 0 0 0 0 0 0 0 0 0 0 nan
nan -0 0 0 1 1 1 0 0 0 0 0 0 0 0 0 0 0 0 0 0 0 0 0 0 0 0 0 0 0 0 0 0 1 1 1 0 0 0 0 0 0 0 0 0 0 0 0 -0 -1 -1 -0 0 0 0 0 0 0 0 0 0 0 0 0 0 0 0 0 nan
nan 0 0 0 1 1 0 0 0 0 -0 -0 0 0 0 0 0 0 1 0 0 0 0 0 0 0 0 0 0 0 0 0 0 1 1 1 0 0 0 0 0 0 0 0 0 0 0 0 -0 -1 -1 -0 0 0 0 0 0 0 0 0 0 0 0 0 0 0 0 0 nan
nan 0 0 1 0 0 0 0 0 -0 -0 -0 0 0 1 1 1 1 1 0 0 -0 -0 0 0 -0 0 0 0 0 1 0 0 0 1 1 0 0 0 0 0 0 0 0 0 0 0 0 -0 -1 -1 0 0 0 -0 -0 -0 0 0 0 0 0 0 0 0 0 0 0 nan
nan 0 1 0 0 0 0 0 -0 -0 -0 0 1 1 1 1 1 1 0 0 -0 0 0 0 0 0 0 0 1 1 1 0 0 0 0 0 0 0 0 0 0 0 0 0 0 0 1 1 -0 -1 -0 0 0 0 -0 -0 -0 -0 0 0 0 0 0 0 0 0 0 0 nan
nan 1 1 0 0 0 0 0 -0 -0 0 1 1 1 1 1 1 1 1 0 0 0 0 0 0 0 1 1 1 1 0 0 0 0 0 0 1 0 0 0 0 1 0 0 0 0 0 1 -0 -1 -0 0 0 0 -0 -0 -0 -0 0 0 0 0 0 0 0 0 0 0 nan
nan 1 1 0 0 0 0 -0 -0 0 1 1 1 1 1 1 1 1 1 1 1 0 0 0 0 1 1 0 0 0 0 0 0 0 0 0 1 0 0 0 0 0 0 0 0 0 0 1 -0 -1 -0 0 0 0 -0 -0 -0 -0 -0 0 0 0 0 0 0 0 0 0 nan
nan nan nan nan nan nan nan nan nan nan nan nan nan nan nan nan nan nan nan nan nan nan nan nan nan nan nan nan nan nan nan nan nan nan nan nan nan nan nan nan nan nan nan nan nan nan nan nan nan nan nan nan nan nan nan nan nan nan nan nan nan nan nan nan nan nan nan nan nan
Wind_Speed
2 2 2 3 4 5 5 6 7 8 9 10 10 10 8 7 5 4 4 3 3 3 4 4 4 3 3 2 1 1 2 3 4 4 5 6 6 7 7 6 7 7 8 10 11 12 12 12 13 12 11 9 8 9 11 14 16 17 19 21 22 21 19 18 18 18 18 18 20
2 2 2 2 3 4 5 6 7 8 10 10 11 11 10 9 7 6 5 4 4 4 4 4 5 5 5 4 3 3 3 3 3 4 4 5 6 7 7 7 7 7 8 8 9 11 12 13 13 14 13 12 11 9 9 9 11 12 14 16 19 20 21 19 18 17 16 15 16
2 2 2 3 3 4 5 6 7 9 10 10 11 11 11 10 9 7 6 5 5 4 5 5 6 6 6 6 5 5 4 4 4 4 4 5 6 6 7 7 7 7 7 8 8 9 10 11 13 14 14 14 13 12 10 10 10 10 10 11 13 15 18 19 20 19 17 16 14
3 3 3 3 3 4 5 5 7 9 10 11 11 11 11 11 10 9 8 8 6 5 5 6 6 7 7 7 7 6 6 6 5 5 5 5 6 6 6 7 7 7 7 7 8 9 10 10 11 12 13 14 13 12 11 11 11 11 11 11 11 11 13 15 18 19 19 18 16
3 3 3 3 4 4 4 5 7 8 10 10 11 11 11 11 11 11 10 10 8 6 6 6 7 7 7 7 7 7 7 7 7 7 7 6 6 6 7 7 7 7 8 8 8 9 9 10 11 11 12 12 12 12 12 11 11 11 12 12 12 11 12 13 14 16 18 18 18
4 4 4 4 4 4 4 5 6 7 9 10 11 12 13 12 12 12 12 12 10 8 7 7 8 8 8 8 8 8 8 8 9 9 9 8 7 7 7 7 8 8 8 9 9 9 9 10 10 11 11 11 12 12 12 11 11 11 11 12 12 11 11 11 13 14 15 16 16
4 4 4 4 4 4 5 5 5 6 8 10 12 13 14 14 14 14 14 13 11 10 9 9 9 10 10 9 9 9 9 9 10 10 10 10 10 9 9 8 8 8 9 10 10 11 11 11 11 10 10 11 11 11 12 12 11 11 12 12 12 11 10 10 11 12 13 14 14
5 5 5 5 5 5 5 5 5 6 7 9 11 13 14 14 15 15 15 14 13 11 11 11 11 11 11 11 11 10 10 10 11 11 11 11 12 11 11 10 10 9 9 9 10 11 12 12 12 12 11 10 11 11 12 13 13 12 13 13 12 12 11 11 11 12 12 13 13
7 6 6 5 5 5 5 5 5 6 7 8 10 12 13 13 14 14 15 15 14 12 12 12 12 12 12 12 12 12 12 12 12 11 11 12 12 13 13 13 12 11 10 10 10 11 12 13 13 13 13 12 12 12 13 14 14 14 14 14 14 14 14 14 14 14 14 14 14
9 8 7 6 6 6 6 6 6 6 7 7 8 9 10 11 12 14 14 14 13 13 13 13 13 13 13 13 13 13 13 13 13 12 12 12 12 13 13 13 14 13 12 11 11 11 11 12 13 13 14 13 13 14 15 15 16 17 17 16 16 16 16 16 17 17 17 17 16
10 9 9 8 7 7 6 6 6 7 7 7 8 8 9 9 11 12 13 12 13 13 13 13 13 13 14 14 14 14 13 13 13 13 12 12 12 12 12 13 14 14 13 13 12 12 12 12 12 13 13 14 14 15 15 16 17 18 18 18 18 18 18 18 19 19 20 19 19
11 11 10 9 9 8 7 7 7 7 7 8 8 8 8 8 10 11 11 12 13 13 13 13 13 13 13 14 14 14 13 13 12 12 12 11 11 11 11 12 13 13 13 13 13 13 13 13 13 13 13 14 14 14 15 16 17 17 18 19 19 19 19 20 20 21 21 20 20
13 12 11 11 10 9 8 8 7 7 7 8 8 8 8 8 9 10 11 12 12 13 13 12 12 12 13 13 13 13 12 12 12 11 11 11 10 10 11 11 12 12 13 13 13 13 13 13 13 13 13 14 14 14 14 15 15 16 17 18 19 19 20 20 20 21 21 20 20
14 14 13 12 11 11 10 9 8 8 8 8 8 8 8 8 9 10 10 11 12 13 13 12 12 12 13 12 12 12 11 11 11 11 10 10 10 10 10 11 11 12 12 12 12 12 13 13 13 13 14 14 13 13 13 13 13 14 15 16 17 18 19 19 20 20 20 20 20
16 15 14 13 13 12 11 10 9 9 8 8 8 8 8 9 9 10 10 11 12 13 13 13 13 13 12 12 12 11 11 11 10 10 10 10 10 10 10 10 11 11 12 12 12 12 12 12 12 12 13 13 13 13 12 12 12 12 13 14 15 16 17 18 19 19 19 19 19
17 16 15 14 14 13 12 11 10 10 9 9 8 8 9 9 10 10 10 11 11 12 13 13 13 13 13 12 12 11 11 10 10 10 10 10 9 9 9 10 11 11 11 12 12 11 11 11 10 11 11 12 12 12 12 11 11 11 11 12 13 14 15 16 17 17 18 18 18
18 17 16 16 15 14 13 12 11 11 10 10 9 9 9 10 10 10 11 11 11 12 12 12 12 12 12 12 12 11 11 10 10 10 9 9 9 9 9 10 10 11 11 11 11 11 11 10 10 9 10 10 11 12 12 12 11 10 10 11 12 13 13 14 15 16 17 17 17
20 19 18 17 16 15 14 13 12 12 11 11 10 10 10 10 11 11 11 11 11 11 11 11 11 11 12 12 12 11 11 11 10 10 9 9 9 9 9 10 10 10 11 11 11 11 11 10 9 9 9 9 10 11 11 11 11 11 11 11 11 11 12 13 14 15 16 16 17
21 20 19 18 17 16 15 14 13 13 12 12 11 11 11 11 11 11 11 11 11 11 11 11 11 11 11 11 11 11 11 11 10 10 10 9 9 9 9 9 10 10 10 11 11 11 11 10 10 9 9 9 10 10 11 11 12 12 12 11 11 11 11 12 13 14 15 15 16
22 22 20 19 18 17 16 15 14 14 13 13 13 12 12 12 12 12 12 11 11 11 11 11 11 11 11 11 11 11 11 10 10 10 10 10 10 9 9 10 10 10 10 10 11 11 11 11 10 10 10 10 10 11 11 11 12 12 12 12 12 12 12 12 13 13 14 14 15
24 23 22 20 19 18 17 16 15 15 14 14 14 13 13 13 13 13 12 12 12 11 11 12 12 11 11 11 11 11 11 11 11 10 10 10 10 10 10 10 10 10 10 10 11 11 11 11 11 11 11 11 11 12 11 12 12 12 13 13 13 13 13 13 13 13 14 14 14
25 24 23 22 21 20 19 18 17 16 16 15 15 14 14 14 14 14 13 13 12 12 12 12 12 12 12 11 11 11 11 11 11 11 11 11 11 11 11 11 10 10 10 10 11 11 11 11 12 12 12 13 13 13 13 13 13 13 13 13 14 14 14 14 15 14 14 14 14
26 25 24 24 23 21 20 19 18 18 17 16 15 15 15 15 15 15 14 14 13 12 12 12 13 13 12 12 11 11 11 11 11 11 11 11 11 11 12 11 11 11 11 11 11 11 12 12 12 13 13 14 14 14 15 15 14 14 14 14 14 14 14 15 15 15 15 15 15
27 26 26 25 24 23 22 21 20 19 18 17 16 16 16 16 16 15 15 14 14 13 13 13 13 13 12 12 12 11 11 11 11 11 11 12 12 12 12 12 12 12 12 12 12 12 12 13 13 14 14 15 15 15 16 16 16 16 15 15 14 14 14 14 15 15 16 16 16
28 28 27 27 26 25 24 23 22 21 19 18 17 17 17 16 16 16 16 15 15 14 14 14 13 13 12 12 12 12 12 12 12 11 11 12 12 12 12 12 13 13 13 13 13 13 13 13 14 14 15 15 15 16 16 16 17 17 16 16 15 14 14 14 15 15 16 16 16
30 29 28 28 27 27 26 25 23 22 21 19 18 18 17 17 17 17 17 16 16 15 15 14 14 13 13 12 12 12 12 12 12 12 11 11 12 12 12 12 13 13 13 14 14 14 14 14 14 14 15 15 16 16 16 17 17 17 17 16 16 15 14 14 14 14 15 16 16
31 31 30 29 29 28 27 26 25 23 22 21 20 19 18 18 17 17 17 17 16 16 15 15 14 14 13 12 12 12 12 12 12 12 11 11 11 11 12 12 12 13 13 14 14 14 14 14 15 15 15 15 15 16 16 17 17 17 17 17 16 16 15 14 14 14 14 15 16
33 32 32 31 30 29 28 27 26 25 23 22 21 20 19 19 18 18 18 18 17 17 16 16 15 14 13 13 12 12 12 12 12 12 11 11 11 11 11 11 12 12 13 13 13 14 14 14 15 15 15 15 15 15 16 16 17 17 17 17 16 16 16 15 14 14 13 14 14
34 33 33 33 32 31 30 29 28 26 25 24 22 21 20 20 19 19 19 18 18 18 17 17 16 15 14 13 13 12 12 12 12 12 12 11 11 11 11 11 11 11 12 12 12 13 13 14 15 15 15 15 14 15 15 16 16 16 16 16 16 16 16 16 15 14 13 13 13
34 35 35 34 33 32 31 30 29 28 26 25 24 22 21 21 20 20 19 19 18 18 18 17 16 16 15 14 13 13 13 13 12 12 12 12 11 11 11 10 10 10 11 11 12 12 13 13 14 15 15 14 14 14 14 15 15 15 16 16 16 16 16 16 15 14 13 13 12
34 35 36 36 35 34 33 31 30 29 28 26 25 24 23 22 21 20 20 19 19 18 18 18 17 16 16 15 14 14 13 13 13 12 12 12 12 11 11 10 10 10 10 11 11 12 12 13 14 14 15 14 13 13 14 14 14 15 15 16 16 16 16 16 16 15 14 13 12
34 35 36 37 36 36 34 33 32 30 29 28 27 25 24 23 22 21 20 20 19 19 19 18 18 17 16 16 15 14 14 13 13 13 12 12 12 12 11 10 10 10 10 10 11 11 11 12 13 14 14 14 13 13 13 14 14 15 15 15 16 16 16 16 16 16 15 14 13
33 34 35 36 37 36 36 35 33 32 31 29 28 27 25 24 23 22 21 21 20 20 19 19 18 18 17 16 16 15 15 14 13 13 12 12 12 12 11 11 10 10 10 10 10 10 11 11 13 14 14 13 13 13 13 14 14 14 15 15 15 16 16 16 16 16 15 15 14
32 32 33 34 35 36 36 36 35 34 33 31 30 28 27 25 24 23 23 22 21 20 20 19 19 18 18 17 17 16 15 15 14 13 13 13 12 12 12 11 10 10 10 10 10 10 10 11 12 13 13 13 12 12 13 13 14 14 14 14 15 15 16 16 16 16 16 15 15
30 30 31 32 33 35 36 37 36 35 34 33 31 30 28 27 26 24 24 23 22 21 20 20 19 19 18 18 17 17 17 16 15 14 13 13 13 13 12 12 11 11 10 10 10 10 10 11 12 13 13 12 11 11 12 12 13 13 13 14 14 15 15 15 16 16 16 15 15
28 28 29 30 31 33 35 36 37 36 36 35 33 32 30 29 27 26 25 24 23 22 21 20 20 19 19 19 18 18 17 17 16 15 14 13 13 13 13 12 11 11 11 11 11 11 11 11 12 13 12 11 10 10 11 11 12 12 12 13 13 14 14 14 15 15 15 15 15
26 26 27 28 29 31 33 34 36 36 36 36 35 33 32 30 29 27 26 25 24 23 22 21 21 20 20 20 19 19 18 17 16 15 15 14 14 14 13 13 12 12 11 11 11 11 11 11 12 12 12 10 9 9 10 10 11 11 12 12 12 13 13 14 14 14 15 15 15
25 25 26 26 27 29 30 32 33 35 35 35 35 34 33 32 31 29 28 27 25 24 23 22 21 21 20 20 20 19 19 18 17 16 16 15 15 14 14 14 13 12 12 12 12 12 11 11 12 12 11 9 9 9 9 10 10 11 11 11 12 12 12 13 13 13 13 13 13
24 25 25 25 26 27 28 29 30 32 33 34 35 35 34 34 32 31 30 28 27 25 24 22 22 21 21 21 20 20 20 19 18 17 17 16 15 15 14 14 14 13 13 12 13 13 12 12 13 12 11 10 9 9 9 10 10 10 11 11 11 11 12 12 12 12 12 12 11
24 24 24 25 25 25 26 27 28 29 30 32 34 34 35 34 34 32 31 30 28 26 24 23 22 22 21 21 21 21 21 20 19 18 17 17 16 15 15 15 15 14 13 13 13 13 13 13 14 13 12 11 10 10 10 10 10 10 10 10 11 11 11 12 11 11 11 10 10
23 23 24 24 24 24 24 25 25 26 28 29 31 33 33 34 34 33 32 31 29 27 25 24 23 22 22 22 22 22 22 21 20 19 18 17 16 16 16 15 15 15 14 14 13 13 14 14 15 14 13 12 11 11 10 10 10 10 10 10 10 11 11 11 11 10 10 9 9
Wind_Direction
276 274 265 251 243 242 243 242 244 250 257 262 265 266 265 260 254 249 245 242 247 253 257 258 255 251 245 228 206 188 188 191 194 197 201 206 211 217 222 229 232 232 230 226 222 218 213 209 205 204 204 204 199 190 183 179 174 169 165 164 165 166 169 173 177 180 181 180 180
265 268 267 260 250 242 238 234 237 245 253 259 263 266 266 264 261 259 256 248 245 249 255 259 260 259 256 249 242 235 226 212 201 197 200 205 209 215 220 225 232 237 240 238 235 232 227 223 220 218 219 221 223 223 214 199 190 181 173 167 165 163 161 161 164 168 173 176 179
254 255 258 258 255 248 242 235 234 239 247 254 259 263 267 268 268 267 264 260 257 256 257 260 261 260 257 253 249 247 244 237 225 212 204 204 208 213 216 220 226 233 240 244 244 243 239 235 232 230 229 231 234 237 235 226 216 207 198 190 179 171 165 161 159 160 163 167 171
252 250 250 252 254 254 249 241 235 237 242 249 255 261 265 269 271 271 269 267 264 261 262 264 265 263 260 255 251 249 248 247 244 235 224 214 210 211 214 216 218 222 229 238 243 246 246 244 241 239 238 238 241 242 241 237 233 227 222 217 209 198 187 179 173 170 169 170 171
255 251 250 249 250 251 251 245 236 234 238 245 251 256 260 265 268 270 271 270 268 267 267 269 270 270 266 261 256 253 251 250 250 248 243 233 225 221 219 219 217 216 219 223 231 238 243 246 247 246 245 245 247 248 246 243 240 236 232 230 228 223 216 209 200 192 186 182 179
255 253 252 249 247 246 245 244 239 235 235 239 245 249 254 259 263 267 269 271 272 273 273 275 276 276 274 270 266 262 258 257 255 253 251 247 241 237 233 231 228 225 222 220 220 224 231 238 243 247 248 251 253 253 252 249 245 241 236 233 231 230 228 225 220 213 205 197 190
254 255 254 252 250 247 244 242 240 236 234 235 239 244 249 254 259 264 267 271 273 275 276 277 278 279 280 279 277 274 270 266 262 258 255 253 250 247 246 244 240 237 234 229 225 222 222 226 231 238 244 248 254 256 257 255 251 246 239 232 228 226 224 223 221 218 213 208 201
253 255 256 256 255 253 251 246 242 237 234 233 236 241 246 250 255 260 265 269 271 273 275 276 278 281 282 284 285 284 282 278 273 267 262 258 255 252 251 250 248 246 244 241 236 231 226 222 222 225 230 236 243 248 252 254 253 248 242 234 228 223 221 220 218 216 214 211 207
252 254 255 257 257 258 257 254 249 244 239 236 237 241 246 250 254 258 262 266 269 271 272 274 276 279 283 286 288 289 289 286 282 277 270 265 260 256 255 254 253 253 251 250 248 243 237 230 224 220 220 222 227 233 239 244 246 245 241 236 229 224 222 222 221 220 219 217 214
252 253 254 255 256 259 259 259 255 253 250 247 244 245 248 251 254 258 262 266 268 269 269 270 272 276 280 285 289 291 291 290 287 283 277 270 264 259 257 256 255 255 255 255 255 255 251 243 234 226 221 218 219 222 227 233 236 238 237 234 228 225 224 225 225 225 225 224 222
252 253 254 255 256 257 258 258 258 257 258 257 254 252 251 252 253 257 261 266 267 267 267 268 270 274 279 284 287 289 290 290 289 286 281 276 268 263 258 256 255 255 256 257 259 260 260 256 249 240 231 223 219 219 222 225 229 232 234 232 228 225 224 225 227 228 228 228 228
253 253 254 255 255 256 256 257 258 259 260 262 262 260 257 254 254 257 261 265 266 267 268 268 271 275 279 282 285 287 288 288 287 286 282 278 273 267 261 258 255 255 256 258 261 263 265 265 262 255 246 236 228 223 221 222 225 229 231 231 229 227 226 226 227 228 230 231 230
254 254 255 255 256 256 256 257 259 260 263 266 267 267 264 260 257 257 259 262 265 267 269 270 272 275 277 279 282 284 286 286 285 283 281 279 275 271 266 261 258 256 256 258 261 264 267 269 268 266 261 253 243 234 228 224 224 227 230 232 232 231 230 228 228 228 230 231 231
255 256 257 257 257 257 258 259 260 262 265 268 271 272 271 266 263 260 259 260 262 265 268 269 270 272 273 276 279 282 284 285 284 282 280 278 276 273 270 266 262 259 257 258 261 264 268 271 273 273 271 267 260 250 240 231 227 227 229 232 234 234 233 232 231 231 231 231 232
254 256 258 259 259 260 260 261 262 264 267 270 274 275 275 272 270 267 263 261 261 263 265 267 268 269 270 273 276 279 281 282 282 281 279 277 276 274 272 269 265 262 260 259 260 263 266 271 275 277 277 277 273 266 256 245 235 230 229 231 234 235 237 237 237 235 234 233 233
252 254 256 258 260 261 261 262 264 266 268 270 273 275 275 275 276 275 271 267 266 265 265 266 266 267 268 270 272 275 277 279 280 280 279 278 276 275 272 269 267 264 262 261 261 261 263 266 271 276 280 282 282 279 272 263 251 240 234 233 234 236 239 241 242 241 240 239 237
248 250 253 255 257 260 262 263 265 266 268 269 271 272 274 275 277 279 279 277 274 272 270 268 267 267 267 268 269 271 274 276 277 278 278 278 277 275 272 269 267 265 263 261 261 261 262 264 267 272 278 282 284 284 282 278 270 259 247 239 237 237 239 242 244 245 245 245 244
245 247 249 251 254 256 259 262 264 266 268 269 270 271 272 274 276 279 281 282 281 279 277 274 271 268 267 266 267 268 271 274 275 275 276 276 277 275 273 270 267 265 263 262 261 262 262 263 265 269 275 279 282 284 285 285 283 276 266 256 248 244 243 243 245 247 247 248 248
243 244 245 246 249 252 255 258 262 265 267 269 269 270 271 272 275 278 280 282 283 283 282 279 275 271 268 266 266 267 269 271 273 273 273 274 275 275 272 270 267 264 262 262 262 262 263 264 266 270 273 277 280 282 284 286 287 286 282 275 267 260 253 250 248 248 248 248 248
242 242 242 243 245 247 250 254 258 262 265 267 269 269 270 272 274 277 279 281 282 283 283 281 278 274 270 268 267 267 268 269 270 272 273 273 274 273 272 269 266 264 261 261 262 263 264 266 268 271 273 276 279 281 284 285 287 288 288 285 281 276 269 262 256 253 250 249 249
241 241 241 241 242 244 247 250 253 257 261 264 267 269 270 272 274 276 278 279 280 280 280 280 278 276 273 271 269 269 268 267 268 270 271 271 272 271 270 268 266 263 261 260 260 262 265 268 270 272 274 275 277 279 282 284 285 286 288 287 286 283 279 274 269 263 258 255 252
241 240 240 240 241 242 244 246 249 252 256 260 264 267 269 271 273 275 276 277 277 277 277 278 278 277 275 274 272 270 269 268 267 267 268 268 269 268 268 267 265 263 261 259 259 261 263 266 269 271 273 275 276 277 279 280 281 282 284 286 286 286 284 282 279 275 269 264 258
240 240 240 240 240 241 242 244 246 249 253 256 260 263 266 269 271 274 275 274 274 274 275 275 276 276 276 275 274 272 271 269 267 267 266 266 266 267 267 266 265 263 261 259 258 258 259 263 266 269 271 273 275 277 277 278 279 279 281 283 285 286 286 285 284 281 278 273 267
240 240 239 239 240 240 241 243 245 247 250 254 257 261 264 267 269 271 272 273 272 272 272 273 273 274 275 275 275 273 271 270 268 267 265 265 265 265 266 266 265 264 262 260 258 257 257 259 262 266 269 271 273 274 276 276 277 277 278 280 282 284 285 285 284 283 282 279 275
239 239 239 239 239 240 241 242 243 245 248 251 254 258 261 264 266 269 270 271 271 270 270 271 271 273 273 274 273 273 271 269 268 267 265 265 265 265 265 265 265 264 262 261 260 259 259 260 261 263 266 268 270 271 273 274 275 276 277 278 279 281 282 283 284 283 282 281 279
237 237 238 238 238 239 240 241 243 244 246 249 252 255 258 261 264 266 268 269 269 269 269 269 270 271 272 272 271 271 271 270 269 268 266 265 264 264 264 264 264 263 263 262 262 262 262 262 261 261 263 265 267 269 270 271 273 274 275 275 276 278 279 280 281 281 281 281 280
236 236 237 237 238 238 239 241 242 243 245 247 249 252 256 258 261 263 265 267 267 268 268 268 269 269 270 270 269 269 270 271 271 270 269 267 265 263 262 262 262 261 261 262 262 262 262 262 262 261 262 263 264 265 267 268 269 271 272 273 274 275 276 277 277 278 279 279 279
235 235 236 236 237 237 238 239 240 241 243 245 247 250 253 255 258 260 263 264 266 266 266 266 267 268 268 268 268 269 270 271 272 272 271 269 266 264 261 260 260 259 259 260 260 260 260 260 261 261 262 261 262 263 264 265 266 267 269 270 271 272 273 273 274 275 276 277 277
234 234 235 235 236 237 237 238 239 240 242 243 245 247 250 253 256 258 260 262 264 265 265 266 266 266 266 267 267 267 268 269 271 272 272 270 268 266 263 260 258 257 257 258 258 258 258 258 260 261 262 262 261 262 263 263 264 265 266 267 268 269 270 271 271 272 272 272 273
235 234 234 234 235 236 237 237 238 239 241 242 243 245 247 250 253 256 258 260 262 263 264 265 265 265 266 266 265 265 266 267 268 270 270 270 269 267 265 262 259 257 256 256 256 256 256 257 259 260 262 262 262 261 261 262 262 263 264 265 266 266 267 268 268 269 269 269 268
236 234 234 234 235 235 236 237 238 239 240 240 241 243 245 247 250 253 256 258 260 262 262 263 263 264 264 264 264 264 264 264 265 267 268 269 269 269 267 265 261 258 256 255 254 255 255 256 258 260 262 263 262 261 261 261 260 260 261 261 262 263 264 265 265 265 266 265 264
237 236 235 234 234 235 235 236 237 237 238 239 240 241 243 245 248 251 253 256 258 259 260 261 262 262 263 263 263 263 263 263 264 265 266 267 268 268 268 266 263 260 257 255 255 255 255 256 258 260 262 264 264 262 261 259 258 258 257 258 258 260 261 262 262 263 263 263 262
238 237 236 235 235 235 235 235 236 236 237 238 239 240 242 243 245 248 250 253 254 256 257 259 260 261 261 262 262 263 262 262 262 263 263 264 265 266 267 266 264 262 259 257 256 256 256 257 259 262 264 267 266 264 261 259 257 256 255 254 254 255 256 258 259 260 260 260 260
239 238 237 236 235 235 234 234 235 235 236 237 238 239 240 241 243 245 247 249 252 254 256 257 258 259 259 260 261 261 261 261 260 260 260 261 263 263 265 265 264 263 261 259 259 258 257 256 259 262 266 269 268 265 261 259 257 255 253 251 251 251 252 254 255 257 258 258 258
239 239 238 237 236 235 234 234 234 235 236 237 238 238 239 240 241 243 245 247 250 252 253 254 255 255 256 256 257 258 259 259 259 258 259 259 260 261 262 262 262 262 261 261 261 260 259 259 259 263 267 271 269 265 261 260 258 256 253 251 249 249 249 251 252 254 255 256 257
240 239 239 238 237 236 235 234 234 235 235 236 237 238 239 239 240 241 243 245 247 249 251 252 252 253 253 254 254 255 256 257 258 258 257 257 258 259 259 260 260 260 260 261 261 262 262 262 262 265 268 270 266 262 261 261 260 259 256 253 251 250 249 249 250 251 252 253 255
240 240 240 239 238 237 236 235 235 235 236 237 238 238 238 239 239 240 240 241 243 246 248 250 250 251 252 253 253 254 255 256 257 257 256 256 256 257 257 257 257 257 258 259 260 261 261 261 261 263 266 266 261 259 260 262 262 261 259 257 255 253 251 250 249 249 250 251 253
242 242 241 241 241 240 239 238 237 237 237 238 238 238 238 238 238 238 239 240 241 243 245 248 249 251 252 252 253 253 254 254 254 255 255 255 254 255 256 256 255 255 256 256 259 260 259 256 251 256 262 261 257 257 259 262 263 262 261 260 258 255 252 251 249 249 250 251 253
244 243 243 243 243 242 241 241 241 240 240 240 239 239 238 238 238 238 238 239 240 242 244 246 248 250 251 251 251 251 252 252 252 253 253 253 253 253 254 255 254 254 253 254 256 259 259 255 248 251 258 258 256 257 258 260 260 260 260 259 257 254 252 250 249 249 250 251 253
244 244 244 244 244 244 244 244 244 244 243 242 241 240 239 238 238 238 238 238 239 240 241 244 246 248 249 249 249 250 250 251 251 251 251 251 251 251 251 252 253 252 252 252 254 257 258 256 251 251 255 257 256 256 256 257 257 257 257 256 253 250 248 247 247 247 248 251 253
244 244 244 244 244 245 245 246 247 246 245 244 243 242 241 240 239 238 237 237 237 238 239 240 243 244 246 247 248 248 249 250 250 250 250 250 249 249 249 250 251 251 251 251 252 254 255 254 252 253 256 256 254 253 252 253 252 251 251 250 248 246 244 243 242 242 244 247 250
Height
1455 1455 1455 1455 1455 1455 1455 1455 1455 1456 1456 1456 1456 1456 1457 1458 1459 1459 1459 1460 1460 1460 1460 1461 1461 1461 1461 1462 1462 1462 1462 1463 1463 1463 1463 1463 1464 1464 1465 1466 1466 1467 1468 1469 1470 1471 1472 1473 1473 1474 1475 1475 1476 1477 1478 1479 1479 1478 1478 1479 1480 1481 1483 1484 1485 1486 1488 1489 1490
1454 1454 1454 1454 1455 1455 1455 1455 1455 1455 1456 1456 1456 1456 1457 1457 1458 1459 1459 1460 1460 1460 1460 1461 1461 1461 1461 1462 1462 1462 1462 1463 1463 1463 1464 1464 1464 1464 1465 1465 1466 1467 1468 1469 1470 1470 1471 1472 1473 1474 1474 1475 1476 1476 1477 1478 1479 1479 1479 1479 1479 1480 1481 1482 1484 1485 1487 1488 1489
1454 1454 1454 1454 1454 1454 1455 1455 1455 1455 1455 1456 1456 1456 1457 1457 1458 1458 1459 1459 1460 1460 1460 1460 1461 1461 1461 1461 1462 1462 1462 1463 1463 1463 1464 1464 1464 1464 1465 1465 1465 1466 1467 1468 1469 1470 1470 1471 1472 1473 1474 1474 1475 1476 1477 1478 1479 1479 1480 1480 1480 1481 1481 1481 1482 1484 1485 1487 1489
1454 1454 1454 1454 1454 1454 1454 1455 1455 1455 1455 1456 1456 1456 1456 1457 1457 1458 1458 1459 1460 1460 1460 1460 1460 1461 1461 1461 1462 1462 1462 1463 1463 1463 1464 1464 1464 1464 1465 1465 1465 1466 1466 1467 1468 1469 1470 1470 1471 1472 1473 1473 1474 1475 1476 1476 1477 1478 1479 1480 1481 1482 1482 1483 1483 1483 1485 1486 1487
1454 1454 1454 1454 1454 1454 1454 1454 1455 1455 1455 1455 1456 1456 1456 1457 1457 1457 1458 1458 1459 1460 1460 1460 1460 1460 1461 1461 1461 1462 1462 1463 1463 1463 1463 1464 1464 1464 1465 1465 1465 1466 1466 1466 1467 1468 1468 1469 1470 1471 1472 1472 1473 1474 1475 1476 1476 1477 1478 1479 1480 1481 1482 1483 1484 1484 1485 1485 1486
1454 1454 1454 1454 1454 1454 1454 1454 1454 1455 1455 1455 1455 1456 1456 1456 1456 1457 1457 1457 1458 1459 1460 1460 1460 1460 1460 1460 1461 1461 1462 1462 1462 1463 1463 1463 1464 1464 1465 1465 1465 1466 1466 1466 1466 1467 1467 1468 1469 1470 1471 1471 1472 1473 1474 1475 1476 1477 1478 1479 1480 1481 1482 1483 1484 1484 1485 1485 1486
1454 1454 1454 1454 1454 1454 1454 1454 1454 1454 1455 1455 1455 1455 1456 1456 1456 1456 1456 1457 1457 1458 1459 1459 1459 1459 1460 1460 1460 1461 1461 1462 1462 1462 1463 1463 1464 1464 1464 1465 1465 1465 1466 1466 1466 1466 1467 1467 1468 1469 1470 1471 1472 1472 1473 1474 1475 1476 1477 1478 1479 1480 1481 1482 1483 1484 1485 1485 1486
1454 1454 1453 1453 1453 1453 1453 1454 1454 1454 1454 1455 1455 1455 1455 1455 1456 1456 1456 1456 1457 1458 1458 1458 1458 1458 1459 1459 1460 1460 1461 1461 1461 1462 1462 1463 1463 1463 1464 1464 1465 1465 1465 1466 1466 1466 1466 1466 1467 1468 1469 1470 1471 1472 1473 1473 1474 1475 1476 1477 1479 1480 1481 1482 1483 1484 1484 1485 1486
1453 1453 1453 1453 1453 1453 1453 1453 1453 1453 1454 1454 1454 1455 1455 1455 1455 1455 1455 1455 1456 1457 1457 1457 1457 1458 1458 1458 1459 1459 1460 1460 1460 1461 1461 1462 1462 1463 1463 1464 1464 1464 1465 1465 1466 1466 1466 1466 1466 1467 1468 1469 1470 1471 1472 1473 1474 1475 1475 1477 1478 1479 1480 1481 1482 1483 1484 1485 1486
1453 1453 1453 1453 1453 1453 1453 1453 1453 1453 1453 1453 1454 1454 1454 1454 1455 1455 1455 1455 1456 1456 1457 1457 1457 1457 1457 1458 1458 1458 1459 1459 1460 1460 1460 1461 1461 1462 1462 1463 1463 1464 1464 1465 1465 1465 1466 1466 1466 1466 1467 1468 1469 1470 1471 1472 1473 1474 1475 1476 1477 1478 1479 1480 1481 1482 1483 1485 1486
1452 1452 1452 1452 1452 1452 1452 1452 1452 1452 1453 1453 1453 1453 1454 1454 1454 1454 1454 1455 1455 1455 1456 1456 1456 1457 1457 1457 1457 1457 1458 1458 1459 1459 1459 1460 1460 1461 1461 1462 1462 1463 1463 1464 1464 1465 1465 1465 1466 1466 1466 1467 1468 1469 1470 1471 1472 1473 1474 1475 1476 1477 1478 1479 1480 1481 1482 1483 1485
1451 1452 1452 1452 1452 1452 1452 1452 1452 1452 1452 1452 1452 1453 1453 1453 1454 1454 1454 1454 1455 1455 1455 1455 1456 1456 1456 1456 1456 1457 1457 1457 1458 1458 1458 1459 1459 1460 1460 1461 1461 1462 1462 1463 1463 1464 1464 1465 1465 1465 1466 1466 1467 1467 1468 1469 1470 1471 1473 1474 1475 1475 1476 1477 1479 1480 1481 1482 1483
1450 1450 1451 1451 1451 1451 1452 1452 1452 1452 1452 1452 1452 1452 1452 1453 1453 1454 1454 1454 1454 1454 1454 1455 1455 1456 1456 1456 1456 1456 1456 1456 1457 1457 1457 1458 1458 1459 1459 1460 1460 1461 1461 1462 1462 1463 1463 1464 1464 1465 1465 1465 1466 1466 1467 1468 1469 1470 1471 1472 1473 1474 1475 1476 1477 1478 1479 1480 1481
1449 1450 1450 1450 1450 1451 1451 1451 1451 1451 1451 1451 1451 1451 1452 1452 1453 1453 1453 1453 1454 1454 1454 1454 1455 1455 1455 1455 1455 1455 1456 1456 1456 1456 1456 1457 1457 1458 1458 1459 1459 1460 1460 1461 1461 1462 1462 1463 1463 1464 1464 1465 1465 1465 1466 1467 1467 1468 1470 1470 1471 1472 1473 1474 1475 1476 1477 1478 1479
1448 1449 1449 1449 1450 1450 1450 1450 1450 1451 1451 1451 1451 1451 1451 1451 1452 1452 1452 1453 1453 1453 1453 1454 1454 1454 1454 1455 1455 1455 1455 1455 1455 1455 1455 1456 1456 1457 1457 1458 1458 1459 1460 1460 1460 1461 1462 1462 1463 1463 1464 1464 1465 1465 1465 1466 1466 1467 1468 1469 1470 1470 1471 1472 1473 1474 1475 1476 1477
1447 1448 1448 1448 1449 1449 1449 1449 1450 1450 1450 1450 1450 1450 1450 1451 1451 1451 1451 1452 1452 1452 1453 1453 1453 1453 1454 1454 1454 1455 1455 1455 1455 1455 1455 1455 1455 1456 1456 1457 1457 1458 1458 1459 1460 1460 1461 1461 1462 1463 1463 1464 1464 1465 1465 1465 1466 1466 1467 1467 1468 1469 1470 1471 1471 1472 1473 1474 1475
1446 1447 1447 1447 1448 1448 1448 1448 1449 1449 1449 1450 1450 1450 1450 1450 1450 1450 1450 1451 1451 1451 1452 1452 1452 1453 1453 1453 1454 1454 1454 1454 1454 1454 1454 1455 1455 1455 1455 1456 1456 1457 1457 1458 1458 1459 1460 1460 1461 1462 1462 1463 1463 1464 1464 1465 1465 1466 1466 1466 1467 1468 1468 1469 1470 1471 1471 1472 1473
1445 1446 1446 1446 1447 1447 1447 1447 1448 1448 1448 1448 1449 1449 1449 1449 1449 1449 1450 1450 1450 1450 1450 1451 1451 1452 1452 1452 1453 1453 1453 1453 1453 1454 1454 1454 1454 1455 1455 1455 1455 1456 1456 1457 1457 1458 1459 1459 1460 1461 1462 1462 1462 1463 1464 1464 1465 1465 1465 1466 1466 1467 1467 1468 1469 1469 1470 1470 1471
1444 1445 1445 1445 1446 1446 1446 1446 1447 1447 1447 1447 1448 1448 1448 1448 1448 1449 1449 1449 1449 1449 1450 1450 1450 1451 1451 1451 1452 1452 1452 1452 1453 1453 1453 1453 1454 1454 1454 1455 1455 1455 1456 1456 1456 1457 1458 1458 1459 1460 1460 1461 1462 1462 1463 1463 1464 1465 1465 1465 1466 1466 1466 1467 1467 1468 1468 1469 1470
1443 1443 1444 1445 1445 1445 1445 1446 1446 1446 1446 1446 1447 1447 1447 1447 1448 1448 1448 1448 1448 1449 1449 1449 1449 1450 1450 1450 1451 1451 1451 1452 1452 1452 1452 1453 1453 1453 1453 1454 1454 1455 1455 1455 1456 1456 1457 1457 1458 1459 1460 1460 1460 1461 1461 1462 1463 1463 1464 1465 1465 1466 1466 1466 1466 1466 1467 1468 1468
1441 1442 1443 1443 1444 1444 1445 1445 1445 1445 1445 1445 1446 1446 1446 1446 1447 1447 1447 1447 1448 1448 1448 1448 1448 1449 1449 1449 1450 1450 1450 1451 1451 1451 1452 1452 1452 1452 1453 1453 1453 1454 1454 1455 1455 1455 1456 1456 1457 1458 1458 1459 1459 1460 1460 1461 1462 1462 1463 1464 1464 1465 1465 1465 1465 1466 1466 1466 1467
1440 1440 1441 1442 1443 1443 1444 1444 1444 1444 1444 1445 1445 1445 1445 1445 1446 1446 1446 1447 1447 1447 1447 1447 1447 1448 1448 1448 1449 1449 1450 1450 1450 1451 1451 1451 1452 1452 1452 1452 1453 1453 1453 1454 1454 1455 1455 1455 1456 1456 1457 1457 1458 1459 1459 1460 1460 1461 1462 1462 1463 1464 1464 1465 1465 1465 1465 1465 1465
1438 1439 1440 1440 1441 1442 1442 1443 1443 1443 1443 1444 1444 1444 1444 1445 1445 1445 1445 1446 1446 1446 1446 1446 1446 1447 1447 1447 1448 1448 1449 1449 1450 1450 1450 1451 1451 1451 1451 1452 1452 1452 1453 1453 1454 1454 1455 1455 1455 1456 1456 1456 1457 1457 1458 1458 1459 1460 1460 1461 1462 1462 1463 1463 1464 1464 1464 1464 1464
1437 1438 1438 1439 1440 1440 1441 1441 1442 1442 1442 1442 1443 1443 1443 1444 1444 1444 1445 1445 1445 1445 1445 1445 1446 1446 1446 1446 1447 1447 1448 1448 1449 1449 1449 1450 1450 1450 1451 1451 1451 1452 1452 1452 1453 1453 1454 1454 1455 1455 1455 1455 1456 1456 1456 1457 1457 1458 1459 1460 1460 1461 1461 1462 1462 1462 1463 1463 1463
1435 1436 1437 1437 1438 1439 1439 1440 1440 1441 1441 1441 1442 1442 1442 1442 1443 1443 1443 1444 1444 1444 1445 1445 1445 1445 1445 1445 1446 1446 1447 1447 1447 1448 1448 1449 1449 1450 1450 1450 1451 1451 1451 1452 1452 1452 1453 1453 1454 1454 1454 1455 1455 1455 1456 1456 1456 1456 1457 1458 1459 1459 1460 1460 1461 1461 1461 1462 1462
1433 1434 1435 1435 1436 1437 1438 1438 1439 1440 1440 1440 1440 1441 1441 1441 1442 1442 1442 1443 1443 1443 1444 1444 1444 1444 1445 1445 1445 1445 1445 1446 1446 1447 1447 1448 1448 1449 1449 1450 1450 1450 1450 1451 1451 1451 1452 1452 1453 1453 1453 1454 1454 1455 1455 1455 1455 1456 1456 1456 1457 1458 1458 1459 1460 1460 1460 1460 1461
1431 1432 1433 1434 1435 1435 1436 1437 1437 1438 1439 1439 1439 1440 1440 1440 1440 1441 1441 1441 1442 1442 1442 1443 1443 1443 1444 1444 1444 1444 1445 1445 1445 1446 1446 1447 1447 1447 1448 1448 1449 1449 1450 1450 1450 1451 1451 1451 1451 1452 1452 1453 1453 1454 1454 1455 1455 1455 1455 1455 1456 1456 1457 1458 1458 1459 1459 1460 1460
1429 1430 1431 1432 1432 1433 1434 1435 1436 1436 1437 1438 1438 1438 1439 1439 1439 1440 1440 1440 1441 1441 1441 1441 1442 1442 1442 1443 1443 1443 1444 1444 1444 1445 1445 1445 1446 1446 1447 1447 1448 1448 1449 1449 1450 1450 1450 1450 1450 1451 1451 1452 1452 1453 1453 1454 1454 1454 1455 1455 1455 1455 1456 1456 1457 1458 1458 1458 1459
1427 1428 1429 1430 1430 1431 1432 1433 1434 1435 1435 1436 1437 1437 1437 1438 1438 1438 1439 1439 1440 1440 1440 1440 1441 1441 1441 1442 1442 1442 1443 1443 1443 1444 1444 1444 1445 1445 1446 1446 1447 1447 1448 1448 1449 1449 1449 1449 1450 1450 1450 1451 1451 1452 1452 1453 1453 1453 1454 1454 1454 1455 1455 1455 1456 1456 1457 1457 1458
1424 1425 1426 1427 1428 1429 1430 1431 1432 1433 1434 1435 1435 1435 1436 1436 1436 1437 1437 1438 1438 1439 1439 1440 1440 1440 1440 1441 1441 1441 1442 1442 1442 1443 1443 1443 1444 1444 1445 1445 1446 1446 1447 1447 1447 1448 1448 1449 1449 1449 1449 1450 1450 1451 1451 1452 1452 1452 1453 1453 1453 1454 1454 1454 1455 1455 1456 1456 1456
1422 1423 1424 1425 1426 1427 1428 1429 1430 1431 1432 1433 1433 1434 1435 1435 1435 1435 1436 1436 1437 1438 1438 1438 1439 1439 1439 1440 1440 1440 1441 1441 1441 1442 1442 1442 1443 1443 1444 1444 1445 1445 1446 1446 1446 1447 1447 1447 1448 1448 1448 1449 1450 1450 1450 1450 1451 1451 1452 1452 1452 1453 1453 1453 1454 1454 1455 1455 1455
1420 1421 1422 1423 1424 1425 1426 1427 1428 1429 1430 1431 1432 1432 1433 1433 1434 1434 1435 1435 1436 1436 1437 1437 1437 1438 1438 1439 1439 1439 1440 1440 1440 1441 1441 1442 1442 1442 1443 1443 1444 1444 1445 1445 1445 1446 1446 1446 1447 1447 1447 1448 1449 1449 1449 1450 1450 1450 1451 1451 1451 1452 1452 1452 1453 1453 1454 1454 1455
1417 1418 1420 1420 1421 1423 1424 1425 1426 1427 1428 1429 1430 1430 1431 1432 1432 1433 1434 1434 1435 1435 1435 1436 1436 1437 1437 1437 1438 1438 1439 1439 1440 1440 1440 1441 1441 1441 1442 1442 1443 1443 1444 1444 1444 1445 1445 1445 1445 1446 1446 1447 1447 1448 1448 1449 1449 1449 1450 1450 1450 1451 1451 1451 1452 1452 1453 1453 1453
1415 1416 1417 1418 1419 1420 1422 1423 1424 1425 1426 1427 1428 1429 1430 1430 1431 1431 1432 1432 1433 1434 1434 1435 1435 1436 1436 1436 1437 1437 1437 1438 1438 1439 1440 1440 1440 1440 1441 1441 1442 1442 1443 1443 1443 1444 1444 1444 1445 1445 1445 1446 1446 1447 1447 1447 1448 1448 1449 1449 1450 1450 1450 1450 1451 1451 1452 1452 1452
1413 1414 1415 1416 1417 1418 1420 1421 1422 1423 1424 1425 1426 1427 1428 1429 1429 1430 1430 1431 1432 1432 1433 1434 1434 1435 1435 1435 1435 1436 1436 1437 1437 1438 1438 1439 1439 1440 1440 1440 1441 1441 1442 1442 1442 1443 1443 1443 1443 1444 1444 1445 1445 1446 1446 1446 1447 1447 1448 1448 1448 1449 1449 1450 1450 1450 1451 1451 1451
1411 1412 1413 1414 1415 1416 1417 1418 1420 1420 1421 1422 1424 1425 1425 1426 1427 1428 1429 1430 1430 1431 1431 1432 1433 1433 1434 1434 1434 1435 1435 1435 1436 1437 1437 1438 1438 1439 1439 1440 1440 1440 1441 1441 1441 1442 1442 1442 1442 1442 1443 1444 1444 1445 1445 1445 1445 1446 1446 1447 1447 1448 1448 1449 1449 1450 1450 1450 1451
1409 1410 1411 1412 1413 1414 1415 1416 1417 1418 1419 1420 1421 1422 1424 1425 1425 1426 1427 1428 1429 1429 1430 1430 1431 1432 1432 1433 1433 1434 1434 1435 1435 1435 1436 1437 1437 1438 1438 1439 1439 1440 1440 1440 1440 1441 1441 1441 1441 1441 1442 1442 1443 1444 1444 1444 1445 1445 1445 1446 1446 1447 1447 1448 1448 1448 1449 1449 1450
1407 1408 1409 1410 1411 1412 1413 1414 1415 1416 1417 1418 1419 1420 1421 1423 1424 1425 1425 1426 1427 1427 1428 1429 1430 1430 1431 1432 1432 1433 1433 1433 1434 1435 1435 1435 1436 1437 1437 1438 1438 1439 1439 1440 1440 1440 1440 1441 1440 1440 1441 1441 1442 1442 1443 1443 1443 1444 1444 1445 1445 1446 1446 1446 1447 1447 1448 1448 1449
1406 1407 1407 1408 1409 1410 1411 1412 1413 1414 1415 1416 1417 1418 1420 1420 1422 1423 1424 1425 1425 1426 1427 1428 1428 1429 1430 1430 1431 1431 1432 1432 1433 1433 1434 1435 1435 1436 1436 1437 1437 1438 1438 1439 1439 1439 1440 1440 1440 1440 1440 1441 1441 1442 1442 1442 1443 1443 1443 1444 1444 1445 1445 1445 1446 1446 1447 1447 1448
1404 1405 1406 1406 1407 1408 1409 1410 1410 1412 1413 1414 1415 1416 1417 1418 1420 1421 1422 1423 1424 1425 1425 1426 1427 1428 1429 1429 1430 1430 1430 1431 1431 1432 1433 1433 1434 1435 1435 1435 1436 1437 1437 1438 1438 1438 1438 1439 1439 1439 1439 1440 1440 1441 1441 1441 1442 1442 1442 1443 1444 1444 1444 1445 1445 1445 1446 1446 1447
1403 1404 1404 1405 1406 1406 1407 1408 1409 1410 1411 1412 1413 1414 1415 1417 1418 1419 1420 1421 1422 1423 1424 1425 1426 1426 1427 1428 1428 1429 1429 1430 1430 1431 1431 1432 1433 1433 1434 1435 1435 1435 1436 1437 1437 1437 1437 1438 1438 1438 1438 1439 1440 1440 1440 1440 1441 1441 1442 1442 1443 1443 1444 1444 1445 1445 1445 1446 1446